Weather in Shubarkuduk

Kazakhstan     49°23′21″N   58°22′13″E
temp.,
°C
wind,
m/s
gust,
m/s
humid.,
%
clouds,
%
prec.,
mm/h
press.,
hPa
HPBL,
m
24 june, thu
thu2423:00+23ne6106033 0.9 1015231
02:00+22nne33655 0.0 101441
05:00+19ne35745 0.0 101582
08:00+23ene45670 0.0 1015470
11:00+26ne445385 0.7 1015993
14:00+29ne453838 0.0 10152425
17:00+29ne64403 0.0 10151688
20:00+26ne44425 0.0 10161050
25 june, fri
fri2523:00+22e34511 0.0 101763
02:00+20se12550 0.0 101611
05:00+19ese11604 0.0 101611
08:00+24wsw12470 0.0 1015436
11:00+28wnw34390 0.0 10141928
14:00+31nw45312 0.0 10122617
17:00+32nw66255 0.0 10112761
20:00+29nnw57340 0.0 1011403
26 june, sat
sat2623:00+25nnw46440 0.0 101189
02:00+23nne34570 0.0 101155
05:00+21nne22670 0.0 101111
08:00+25ne22530 0.0 1011339
11:00+29nne334058 0.0 10111869
14:00+31ne133143 0.0 10102784
17:00+32n232952 0.0 10092760
20:00+28ne454180 0.4 1009129
27 june, sun
sun2723:00+21n476837 0.9 1011127
02:00+21ene11685 0.1 101011
05:00+20nnw33715 0.1 101139
08:00+24ne34595 0.0 1011364
11:00+29nne44410 0.0 10111275
14:00+32nne44325 0.0 10102481
17:00+33nne332941 0.0 10092632
20:00+30nne563928 0.0 1010236
28 june, mon
mon2823:00+28ne3642100 0.0 1010131
02:00+26ne364721 0.0 1010143
05:00+24ene485656 0.0 1011170
08:00+27ene68495 0.0 1012478
11:00+31e76366 0.0 10111514
14:00+34ene543098 0.0 10113419
17:00+29sse2243100 0.3 101153
20:00+30ene233814 0.0 101190